Theta_e
335 335 335 333 333 333 332 332 331 330 330 329 329 329 329 330 330 329 329 320 324 328 330 333 333 333 333 331 331 330 330 328 325 325 325 326 327 327 327 327 328 329 329
335 335 334 334 333 333 333 333 332 331 331 331 330 331 331 332 332 331 330 328 323 326 328 329 330 332 331 330 330 328 326 324 322 321 320 321 321 322 322 322 323 325 324
336 336 336 336 337 337 336 335 334 333 333 333 332 331 332 332 331 328 328 327 320 317 322 326 327 328 328 328 326 324 321 320 318 317 317 317 317 317 318 318 318 318 319
327 330 334 335 336 337 335 333 332 330 331 329 327 328 330 330 329 328 325 325 318 312 311 314 317 320 322 322 322 320 318 316 315 314 314 314 314 315 315 315 315 315 316
320 324 326 327 330 332 333 332 331 330 328 329 327 327 329 328 326 324 322 315 310 309 306 306 306 309 313 315 317 317 315 313 312 312 311 312 312 312 312 313 313 313 314
316 320 322 325 327 327 326 324 325 326 326 324 321 321 323 322 323 319 317 312 305 302 303 302 301 300 304 307 309 311 311 311 310 309 309 309 310 310 310 311 311 312 312
312 315 318 318 319 320 317 316 316 318 320 322 319 319 316 315 313 313 313 308 303 300 299 298 298 298 298 300 303 305 308 308 307 307 307 307 308 308 309 309 309 310 310
308 309 310 311 312 313 314 313 313 314 318 317 315 315 311 310 308 308 309 305 301 298 295 295 295 295 295 294 295 299 302 304 304 304 304 305 306 306 307 308 307 307 308
304 305 306 307 307 307 307 306 306 308 309 314 313 311 308 306 306 303 304 304 301 297 294 293 292 292 293 291 291 292 296 298 299 300 301 302 303 304 305 305 305 305 305
302 302 303 303 303 303 302 302 303 304 307 305 309 309 311 308 304 299 300 299 298 295 294 293 291 290 291 290 289 289 292 294 295 296 297 299 300 301 302 302 303 303 303
299 299 300 300 300 301 301 300 301 301 301 301 300 301 304 306 306 302 299 297 297 296 293 292 291 289 289 289 286 287 289 291 292 293 294 295 297 299 299 300 300 301 301
298 297 298 299 299 298 298 298 299 298 299 298 297 296 296 296 295 297 298 300 296 293 293 292 289 288 288 287 285 285 287 288 290 291 292 293 294 295 296 297 298 298 299
295 294 295 296 296 296 296 297 296 295 295 294 294 292 293 291 292 293 293 293 292 293 291 291 289 288 286 286 284 284 285 286 288 289 289 290 292 292 292 294 295 296 296
293 294 294 294 294 294 294 294 294 293 293 292 290 290 289 289 290 289 289 288 289 290 292 290 288 286 285 284 282 283 283 284 285 286 287 288 289 289 290 291 292 293 293
291 292 292 292 292 292 292 292 291 291 290 290 288 288 287 287 287 287 287 287 285 285 287 286 285 285 284 283 281 281 281 282 283 284 285 286 287 287 288 288 289 290 291
290 290 290 290 290 291 291 291 289 289 288 288 287 286 286 286 285 286 286 285 285 283 283 284 283 283 282 281 281 281 280 280 281 282 283 284 285 285 286 286 287 287 288
289 289 289 289 289 288 289 288 287 287 286 285 285 284 284 285 284 284 284 283 282 282 280 283 283 282 280 279 278 280 280 278 279 281 282 283 283 283 284 284 285 285 285
288 288 288 287 287 287 287 286 284 285 284 283 283 283 282 284 282 282 282 281 281 281 279 278 280 279 278 278 277 277 277 278 278 279 281 281 281 282 282 283 283 282 282
287 286 286 285 285 285 285 284 284 283 283 282 282 281 281 282 280 280 280 279 280 280 278 277 277 278 278 276 275 276 275 276 276 278 280 279 279 280 281 281 281 280 279
286 285 285 285 284 284 284 284 283 282 282 281 281 281 280 279 279 279 278 278 277 277 277 276 276 275 275 275 274 272 271 274 273 275 276 275 277 278 279 279 278 277 279
285 285 284 283 283 283 283 282 282 281 280 279 279 279 278 278 278 278 277 276 276 276 274 274 273 273 272 271 270 271 270 271 271 273 270 271 272 274 274 275 275 276 278
285 284 284 283 283 283 282 283 282 280 280 278 277 277 277 277 276 277 276 277 275 273 271 271 271 269 269 269 270 269 268 266 265 272 268 269 272 271 271 272 275 276 278
284 283 283 283 282 282 282 282 281 280 279 278 277 276 276 275 275 274 274 273 273 273 272 270 269 268 268 268 268 267 267 266 265 268 269 266 270 267 271 270 274 276 276
283 283 282 282 282 281 281 281 279 278 277 276 276 276 276 275 274 273 272 270 269 269 269 270 269 269 268 269 268 267 267 266 267 269 268 263 266 266 267 269 273 274 274
282 282 282 281 281 280 280 280 278 277 275 275 275 275 276 274 273 272 271 269 267 267 269 269 269 269 269 269 268 266 262 262 261 264 267 263 265 264 265 267 270 272 272
281 281 281 281 281 280 281 279 278 276 274 274 274 274 275 274 273 272 270 269 265 264 265 264 265 266 266 266 267 265 263 260 260 260 266 261 262 262 260 265 266 267 266
Wind_Speed
4 3 4 4 5 5 5 5 6 6 5 8 8 8 9 7 7 3 1 2 6 7 8 10 12 11 9 9 10 13 18 19 18 17 17 17 17 17 17 17 18 17 16
4 5 6 6 6 5 6 4 6 6 7 7 8 9 9 8 7 5 1 3 10 11 11 9 10 12 12 13 17 19 17 18 18 17 16 16 16 17 18 18 17 17 18
7 8 7 6 6 6 6 5 7 6 6 6 6 7 5 5 3 4 3 4 9 20 22 22 20 20 20 20 20 18 17 18 16 16 16 16 16 16 17 16 16 17 18
8 7 5 6 7 6 6 5 5 5 5 5 5 3 2 4 5 6 5 4 7 7 16 22 22 22 21 21 19 18 19 17 17 17 17 17 16 16 17 17 17 17 18
6 4 4 4 6 5 5 5 6 4 6 5 6 5 4 5 5 5 8 12 11 8 7 17 22 23 22 20 19 19 17 17 17 17 17 17 17 17 17 17 17 17 18
7 5 3 3 5 4 5 6 6 5 3 4 5 5 5 4 6 5 9 9 9 8 6 7 6 11 21 22 19 18 17 17 18 18 17 17 18 17 17 17 17 18 18
6 6 4 5 6 5 6 6 5 5 5 4 6 2 5 7 7 6 7 7 9 8 8 9 7 6 7 18 21 20 19 18 18 18 18 18 18 17 17 17 18 19 19
8 6 7 6 7 5 6 7 7 6 4 5 4 3 3 4 6 6 6 7 8 7 9 10 9 9 8 7 13 20 20 19 19 19 18 18 18 18 18 18 19 19 19
7 7 8 7 7 6 5 6 7 7 4 3 5 4 3 1 5 4 6 5 7 6 7 8 9 9 8 8 10 13 19 18 19 19 19 19 18 18 19 20 20 19 19
8 8 8 7 7 5 6 5 6 5 5 4 2 3 1 2 3 3 3 4 6 6 7 6 7 8 8 7 12 17 18 18 18 18 19 19 19 18 18 20 20 19 20
8 8 8 7 7 5 6 7 7 7 5 5 4 4 3 1 0 3 2 5 5 5 6 5 6 6 7 7 8 10 16 19 18 19 19 19 19 18 19 20 21 20 20
5 8 7 7 7 7 7 6 7 8 6 6 5 5 4 3 4 3 2 2 3 4 5 4 5 5 6 6 11 14 14 18 18 19 19 19 19 18 20 21 21 21 20
4 6 7 7 6 6 7 7 7 8 8 6 7 5 5 6 5 4 3 3 1 4 3 3 5 5 6 5 8 13 12 18 16 18 19 19 18 19 20 21 21 21 20
4 5 5 6 7 7 6 7 6 6 7 7 9 7 5 6 5 5 4 4 1 2 4 4 5 5 5 5 11 13 8 17 15 18 18 18 17 19 20 20 20 20 21
4 5 5 6 6 6 6 6 5 6 6 6 6 6 6 5 5 5 5 5 4 3 3 4 3 7 4 4 10 8 8 15 15 17 19 17 18 20 20 20 20 21 22
4 4 5 5 5 5 5 6 5 6 6 5 5 7 6 4 5 4 4 4 5 4 2 4 5 5 5 6 9 8 9 14 15 17 20 17 18 21 21 21 20 22 23
3 4 4 4 4 5 5 6 6 7 7 7 6 7 7 6 4 4 4 4 5 5 3 2 4 5 6 8 8 8 8 8 8 17 19 17 21 22 22 20 22 24 22
3 4 4 4 4 5 4 5 6 6 7 7 6 6 6 4 6 5 4 5 5 5 3 4 4 5 7 8 9 9 8 7 8 15 18 18 23 22 21 19 22 23 22
4 4 5 5 5 5 5 6 6 7 7 7 6 6 6 5 5 4 5 4 4 4 4 3 4 4 5 7 8 8 9 10 8 17 14 20 23 23 20 22 23 22 23
4 4 4 4 4 4 5 6 6 7 7 7 7 7 7 6 5 5 5 5 4 3 4 3 3 4 5 7 6 8 9 8 10 8 12 18 19 21 20 23 23 24 24
4 4 5 5 4 4 4 6 6 7 7 8 7 8 8 10 13 11 5 5 5 4 4 3 4 4 5 6 8 7 8 9 11 6 10 9 10 8 10 17 18 27 23
5 5 4 4 4 3 5 7 7 6 7 7 7 8 7 7 10 11 13 14 11 5 5 4 3 5 7 7 7 7 7 8 5 6 11 10 8 9 10 9 27 23 21
6 5 4 4 4 5 6 7 7 5 5 6 6 6 7 5 5 6 7 9 11 12 9 5 5 5 5 8 8 8 8 7 8 9 9 8 7 11 9 13 23 19 20
7 7 7 6 6 6 7 9 8 7 6 6 5 5 7 7 4 4 4 5 5 6 7 6 6 5 5 7 8 8 9 9 8 5 8 5 9 10 11 10 15 14 29
7 6 6 7 6 7 9 9 6 6 7 7 6 5 5 8 7 5 5 4 3 4 6 8 6 5 7 8 9 6 6 6 5 5 5 7 7 13 9 6 6 26 24
7 6 6 5 5 6 11 10 6 3 5 5 6 6 5 7 9 6 4 4 3 3 4 3 3 4 5 6 8 7 6 5 5 5 6 8 8 10 8 5 12 10 13
Wind_Direction
259 268 281 231 225 234 245 244 243 244 244 255 265 266 273 268 265 258 269 359 354 352 351 345 343 336 336 351 26 54 53 44 31 23 20 18 13 16 15 13 10 11 10
264 252 265 264 260 268 259 263 272 261 259 258 265 267 270 273 265 245 286 61 52 38 26 9 0 10 20 48 54 48 41 39 28 26 24 23 22 18 16 14 9 10 14
268 277 273 292 289 296 278 273 270 267 272 277 267 273 287 313 313 67 69 84 82 58 51 53 51 49 47 51 49 44 39 38 33 29 26 26 24 24 23 20 16 12 12
358 340 336 327 325 312 286 287 291 298 293 278 289 297 322 345 49 68 68 61 85 70 59 56 53 52 50 47 45 43 40 36 33 30 28 26 25 25 25 22 19 15 14
8 353 353 352 312 337 338 335 328 323 312 322 341 317 5 40 67 90 91 73 66 68 78 66 60 52 49 43 40 37 36 35 32 29 26 24 23 22 21 20 19 16 14
11 6 356 331 340 343 6 0 343 337 328 316 312 309 67 61 75 73 82 85 83 70 70 59 74 63 52 44 38 32 32 31 30 27 24 22 20 18 18 18 17 14 11
14 15 11 9 1 18 10 0 346 327 312 350 300 334 85 74 73 68 86 84 79 71 61 57 49 40 55 46 39 31 28 27 26 22 19 18 15 13 13 17 14 9 5
30 28 19 18 14 353 10 4 356 333 312 23 327 290 213 125 83 66 71 79 77 72 67 61 59 56 51 48 37 32 27 25 22 19 17 15 13 13 9 10 10 3 2
39 31 28 23 18 13 17 11 4 4 345 40 20 342 304 26 143 55 52 81 92 83 78 71 59 52 56 49 43 23 23 23 21 17 14 11 11 9 8 6 2 358 356
38 31 29 27 28 26 29 17 16 6 349 20 327 31 334 333 306 160 134 103 94 85 77 67 67 56 44 52 33 27 20 18 18 14 10 9 5 5 6 0 356 353 351
42 31 27 27 30 31 35 31 25 25 30 31 21 348 346 311 10 280 167 152 121 100 84 66 60 51 45 49 38 18 17 13 12 10 8 7 3 0 2 356 351 349 346
43 31 29 31 30 27 32 34 35 36 32 41 45 40 32 10 19 335 311 125 79 90 69 62 60 49 40 33 36 9 15 15 10 10 5 3 1 360 357 352 347 345 342
45 36 29 34 34 33 39 46 46 47 39 44 38 46 41 38 13 356 342 41 311 130 116 75 65 44 37 23 32 6 10 12 6 8 4 0 358 358 353 349 346 342 342
53 40 44 45 42 38 42 46 50 49 47 46 46 45 48 35 28 23 25 349 224 161 126 109 86 46 30 20 23 0 6 6 3 5 2 357 356 353 350 349 344 343 341
80 66 60 60 54 54 50 58 62 65 61 59 57 55 55 50 35 31 31 25 1 336 72 76 63 57 26 11 20 355 4 352 2 2 359 352 357 351 348 348 345 343 341
86 83 78 74 72 70 70 79 77 69 74 61 60 62 59 52 51 44 31 31 30 360 355 27 57 40 17 4 10 355 0 351 355 355 353 348 351 350 349 345 343 344 341
97 89 86 87 87 89 86 93 97 95 94 88 81 77 68 55 55 45 48 36 46 12 8 96 50 37 9 10 1 356 359 347 344 347 343 348 351 348 346 342 343 344 343
117 111 103 96 92 92 88 97 99 99 100 97 88 83 71 77 73 52 58 55 44 35 7 358 20 18 12 13 354 356 351 346 341 341 338 352 349 342 340 337 344 345 345
142 138 138 134 128 119 113 109 112 107 99 90 78 73 64 68 66 59 53 56 42 42 23 5 359 11 6 15 352 357 343 336 339 337 346 352 340 339 334 342 344 346 344
154 145 128 117 116 116 118 120 118 112 106 98 98 87 69 54 54 71 64 50 37 51 27 17 15 356 11 3 354 350 339 338 334 327 357 341 336 333 336 340 339 344 334
150 142 139 136 135 142 147 140 133 126 122 115 97 80 68 76 67 50 57 48 41 48 34 13 23 359 8 356 356 344 327 336 319 42 349 329 330 326 335 334 332 337 333
157 154 151 148 149 126 151 146 144 132 132 132 124 113 109 99 78 76 72 66 54 39 53 20 26 10 5 358 346 342 336 351 339 7 335 323 324 331 330 320 332 328 333
163 159 150 146 144 122 165 158 143 140 139 134 136 129 118 103 110 105 92 80 62 57 54 41 36 27 354 355 344 338 345 337 315 315 327 302 330 321 321 323 321 327 336
171 168 168 164 158 144 171 165 156 134 124 124 127 127 119 105 91 120 107 87 65 57 40 38 39 28 9 353 348 335 333 325 305 316 357 293 324 318 323 313 313 338 335
172 172 165 161 159 157 173 173 156 138 135 131 126 118 119 107 111 113 102 120 100 55 55 42 39 27 11 0 359 349 1 349 324 324 34 334 329 321 318 306 348 335 325
164 157 162 156 161 164 172 184 172 144 143 134 122 118 88 111 107 100 126 143 117 61 27 16 15 10 3 353 8 15 356 341 331 313 27 341 332 349 322 310 332 318 314